Location: Powder Track
(41.8531°N, 72.3584°W)
Time: 16:31:58
(UTC+00:00)

Transit 4A - Pass Details

Date: 04 August 2021
Orbit: 871 x 974 km, 66.8° (Epoch: 21 September)

Event Time Altitude Azimuth Distance (km) Brightness Sun altitude
Rises 04:06:09 0° 213° (SSW) 3,494 - -29.9°
Reaches altitude 10° 04:08:39 10° 214° (SW) 2,545 - -30.0°
Maximum altitude 04:14:32 77° 301° (WNW) 903 - -30.2°
Exits shadow 04:14:53 74° 338° (NNW) 914 7.8 -30.2°
Drops below altitude 10° 04:20:22 10° 28° (NNE) 2,526 10.8 -30.4°
Sets 04:22:51 0° 30° (NNE) 3,466 11.6 -30.5°
